Time,TemperatureF,DewpointF,PressureIn,WindDirection,WindDirectionDegrees,WindSpeedMPH,WindSpeedGustMPH,Humidity,HourlyPrecipIn,Conditions,Clouds,dailyrainin,SoftwareType,DateUTC
2013-10-05 00:04:00,58.3,56.3,29.83,SSW,205,0.0,1.0,93,0.17,,,0.21,meteohub,2013-10-05 05:04:00,
2013-10-05 00:09:00,58.3,56.3,29.80,SSW,206,0.0,1.0,93,0.16,,,0.21,meteohub,2013-10-05 05:09:00,
2013-10-05 00:14:00,58.3,56.3,29.78,SSW,212,0.0,2.0,93,0.14,,,0.21,meteohub,2013-10-05 05:14:00,
2013-10-05 00:19:00,58.3,56.3,29.77,SSW,211,0.0,3.0,93,0.13,,,0.22,meteohub,2013-10-05 05:19:00,
2013-10-05 00:24:00,58.3,56.3,29.77,NW,322,0.0,5.0,93,0.12,,,0.22,meteohub,2013-10-05 05:24:00,
2013-10-05 00:29:00,58.3,56.3,29.78,SSW,194,0.0,7.0,93,0.11,,,0.22,meteohub,2013-10-05 05:29:00,
2013-10-05 00:34:00,58.3,56.3,29.78,WSW,252,1.0,12.0,93,0.11,,,0.23,meteohub,2013-10-05 05:34:00,
2013-10-05 00:40:00,58.3,56.3,29.78,South,173,0.0,12.0,93,0.08,,,0.23,meteohub,2013-10-05 05:40:00,
2013-10-05 00:45:00,58.3,56.3,29.78,South,173,0.0,12.0,93,0.05,,,0.23,meteohub,2013-10-05 05:45:00,
2013-10-05 00:50:00,58.3,56.3,29.78,South,173,2.0,5.0,93,0.03,,,0.23,meteohub,2013-10-05 05:50:00,
2013-10-05 00:55:00,58.3,56.3,29.78,South,173,0.0,3.0,93,0.02,,,0.23,meteohub,2013-10-05 05:55:00,
2013-10-05 01:00:00,58.1,56.1,29.77,South,190,0.0,4.0,93,0.02,,,0.23,meteohub,2013-10-05 06:00:00,
2013-10-05 01:05:00,58.1,56.1,29.76,SSE,157,0.0,4.0,93,0.02,,,0.23,meteohub,2013-10-05 06:05:00,
2013-10-05 01:10:00,58.1,56.1,29.77,SW,224,0.0,7.0,93,0.02,,,0.23,meteohub,2013-10-05 06:10:00,
2013-10-05 01:15:00,58.1,56.1,29.77,WNW,282,0.0,7.0,93,0.01,,,0.23,meteohub,2013-10-05 06:15:00,
2013-10-05 01:20:00,57.9,55.9,29.76,SSE,150,0.0,5.0,93,0.01,,,0.23,meteohub,2013-10-05 06:20:00,
2013-10-05 01:25:00,57.9,55.9,29.77,SSE,161,0.0,5.0,93,0.01,,,0.23,meteohub,2013-10-05 06:25:00,
2013-10-05 01:30:00,57.9,55.9,29.76,South,171,0.0,5.0,93,0.00,,,0.23,meteohub,2013-10-05 06:30:00,
2013-10-05 01:35:00,57.7,55.8,29.76,South,177,0.0,6.0,93,0.00,,,0.23,meteohub,2013-10-05 06:35:00,
2013-10-05 01:41:00,57.7,55.8,29.76,West,265,1.0,6.0,93,0.00,,,0.23,meteohub,2013-10-05 06:41:00,
2013-10-05 01:46:00,57.7,55.8,29.77,South,183,0.0,6.0,93,0.00,,,0.23,meteohub,2013-10-05 06:46:00,
2013-10-05 01:51:00,57.9,55.9,29.77,SSE,156,0.0,3.0,93,0.00,,,0.23,meteohub,2013-10-05 06:51:00,
2013-10-05 01:56:00,57.9,55.9,29.78,SSE,148,0.0,6.0,93,0.00,,,0.23,meteohub,2013-10-05 06:56:00,
2013-10-05 02:01:00,57.9,56.1,29.77,SSE,148,0.0,6.0,94,0.00,,,0.23,meteohub,2013-10-05 07:01:00,
2013-10-05 02:06:00,57.9,56.1,29.78,ESE,113,0.0,6.0,94,0.00,,,0.23,meteohub,2013-10-05 07:06:00,
2013-10-05 02:11:00,57.9,56.1,29.77,ESE,115,0.0,6.0,94,0.00,,,0.23,meteohub,2013-10-05 07:11:00,
2013-10-05 02:16:00,57.9,56.1,29.77,WSW,257,1.0,3.0,94,0.00,,,0.23,meteohub,2013-10-05 07:16:00,
2013-10-05 02:21:00,57.9,56.1,29.77,West,280,0.0,3.0,94,0.00,,,0.23,meteohub,2013-10-05 07:21:00,
2013-10-05 02:26:00,57.9,56.1,29.77,West,279,0.0,3.0,94,0.00,,,0.23,meteohub,2013-10-05 07:26:00,
2013-10-05 02:31:00,57.9,56.1,29.77,West,280,0.0,3.0,94,0.00,,,0.23,meteohub,2013-10-05 07:31:00,
2013-10-05 02:37:00,57.9,56.1,29.77,West,273,0.0,3.0,94,0.00,,,0.23,meteohub,2013-10-05 07:37:00,
2013-10-05 02:42:00,57.9,56.1,29.77,West,273,0.0,3.0,94,0.00,,,0.23,meteohub,2013-10-05 07:42:00,
2013-10-05 02:47:00,57.9,56.1,29.76,West,274,0.0,3.0,94,0.00,,,0.23,meteohub,2013-10-05 07:47:00,
2013-10-05 02:52:00,57.9,56.1,29.77,SSW,199,0.0,1.0,94,0.00,,,0.23,meteohub,2013-10-05 07:52:00,
2013-10-05 02:57:00,57.9,56.1,29.76,SSE,159,0.0,3.0,94,0.00,,,0.23,meteohub,2013-10-05 07:57:00,
2013-10-05 03:02:00,57.9,56.1,29.77,SSE,159,0.0,5.0,94,0.00,,,0.23,meteohub,2013-10-05 08:02:00,
2013-10-05 03:07:00,57.9,56.1,29.76,SSE,159,0.0,5.0,94,0.00,,,0.23,meteohub,2013-10-05 08:07:00,
2013-10-05 03:12:00,57.9,56.1,29.76,SSE,159,0.0,5.0,94,0.00,,,0.23,meteohub,2013-10-05 08:12:00,
2013-10-05 03:17:00,57.9,56.1,29.77,SSE,159,0.0,1.0,94,0.00,,,0.23,meteohub,2013-10-05 08:17:00,
2013-10-05 03:22:00,57.9,56.1,29.77,SSE,159,0.0,0.0,94,0.00,,,0.23,meteohub,2013-10-05 08:22:00,
2013-10-05 03:27:00,58.1,56.3,29.76,SSE,159,0.0,1.0,94,0.00,,,0.23,meteohub,2013-10-05 08:27:00,
2013-10-05 03:32:00,58.1,56.3,29.76,SSE,159,0.0,1.0,94,0.00,,,0.23,meteohub,2013-10-05 08:32:00,
2013-10-05 03:37:00,58.1,56.3,29.76,SSE,159,0.0,0.0,94,0.00,,,0.23,meteohub,2013-10-05 08:37:00,
2013-10-05 03:42:00,58.1,56.3,29.77,SSE,159,0.0,1.0,94,0.00,,,0.23,meteohub,2013-10-05 08:42:00,
2013-10-05 03:47:00,58.3,56.5,29.76,SSE,159,0.0,1.0,94,0.00,,,0.23,meteohub,2013-10-05 08:47:00,
2013-10-05 12:17:00,56.3,45.9,29.80,NW,317,0.0,4.0,68,0.00,,,0.24,meteohub,2013-10-05 17:17:00,
2013-10-05 12:23:00,56.7,50.2,29.80,NW,317,0.0,4.0,79,0.00,,,0.24,meteohub,2013-10-05 17:23:00,
2013-10-05 12:28:00,57.0,50.2,29.80,NW,317,0.0,0.0,78,0.00,,,0.24,meteohub,2013-10-05 17:28:00,
2013-10-05 12:33:00,57.4,50.5,29.80,NW,317,0.0,0.0,78,0.00,,,0.24,meteohub,2013-10-05 17:33:00,
2013-10-05 12:38:00,57.7,50.5,29.80,NW,317,0.0,0.0,77,0.00,,,0.24,meteohub,2013-10-05 17:38:00,
2013-10-05 12:43:00,58.3,51.1,29.80,NW,316,0.0,0.0,77,0.00,,,0.24,meteohub,2013-10-05 17:43:00,
2013-10-05 12:48:00,58.6,51.1,29.80,NW,325,0.0,0.0,76,0.00,,,0.24,meteohub,2013-10-05 17:48:00,
2013-10-05 12:53:00,58.8,50.9,29.80,NW,325,0.0,0.0,75,0.00,,,0.24,meteohub,2013-10-05 17:53:00,
2013-10-05 12:58:00,59.0,50.7,29.79,NW,325,0.0,0.0,74,0.00,,,0.24,meteohub,2013-10-05 17:58:00,
2013-10-05 13:03:00,59.0,50.4,29.79,NW,325,0.0,0.0,73,0.00,,,0.24,meteohub,2013-10-05 18:03:00,
2013-10-05 13:08:00,59.2,50.5,29.78,NW,325,0.0,0.0,73,0.00,,,0.24,meteohub,2013-10-05 18:08:00,
2013-10-05 13:13:00,59.2,50.5,29.78,NW,325,0.0,0.0,73,0.00,,,0.24,meteohub,2013-10-05 18:13:00,
2013-10-05 13:18:00,59.4,50.4,29.79,NW,319,0.0,0.0,72,0.00,,,0.24,meteohub,2013-10-05 18:18:00,
2013-10-05 13:23:00,59.4,50.4,29.78,WNW,299,0.0,1.0,72,0.00,,,0.24,meteohub,2013-10-05 18:23:00,
2013-10-05 13:29:00,59.4,50.0,29.78,WNW,298,0.0,4.0,71,0.00,,,0.24,meteohub,2013-10-05 18:29:00,
2013-10-05 13:34:00,59.5,50.2,29.78,NW,309,0.0,4.0,71,0.00,,,0.24,meteohub,2013-10-05 18:34:00,
2013-10-05 13:39:00,59.5,50.2,29.77,NW,323,0.0,6.0,71,0.00,,,0.24,meteohub,2013-10-05 18:39:00,
2013-10-05 13:44:00,59.5,50.2,29.77,West,280,0.0,6.0,71,0.00,,,0.24,meteohub,2013-10-05 18:44:00,
2013-10-05 13:49:00,59.5,49.8,29.77,NW,312,0.0,6.0,70,0.00,,,0.24,meteohub,2013-10-05 18:49:00,
2013-10-05 13:54:00,59.5,49.8,29.77,NW,311,0.0,5.0,70,0.00,,,0.24,meteohub,2013-10-05 18:54:00,
2013-10-05 13:59:00,59.7,50.0,29.77,WNW,284,0.0,5.0,70,0.00,,,0.24,meteohub,2013-10-05 18:59:00,
2013-10-05 14:04:00,59.5,49.3,29.77,WNW,288,0.0,5.0,69,0.00,,,0.24,meteohub,2013-10-05 19:04:00,
2013-10-05 14:09:00,59.5,49.3,29.77,WNW,286,0.0,3.0,69,0.00,,,0.24,meteohub,2013-10-05 19:09:00,
2013-10-05 14:14:00,59.5,49.8,29.76,WNW,286,0.0,4.0,70,0.00,,,0.24,meteohub,2013-10-05 19:14:00,
2013-10-05 14:19:00,59.5,49.8,29.75,WNW,286,0.0,4.0,70,0.00,,,0.24,meteohub,2013-10-05 19:19:00,
2013-10-05 14:24:00,59.5,50.2,29.75,WNW,286,0.0,4.0,71,0.00,,,0.24,meteohub,2013-10-05 19:24:00,
2013-10-05 14:29:00,59.4,50.4,29.75,WNW,286,0.0,1.0,72,0.00,,,0.24,meteohub,2013-10-05 19:29:00,
2013-10-05 14:35:00,59.4,50.7,29.75,WNW,286,0.0,1.0,73,0.00,,,0.24,meteohub,2013-10-05 19:35:00,
2013-10-05 14:40:00,59.4,51.1,29.75,WNW,286,0.0,0.0,74,0.00,,,0.24,meteohub,2013-10-05 19:40:00,
2013-10-05 14:45:00,59.2,51.3,29.75,WNW,286,0.0,0.0,75,0.00,,,0.24,meteohub,2013-10-05 19:45:00,
2013-10-05 14:50:00,59.2,51.6,29.74,WNW,286,0.0,0.0,76,0.00,,,0.24,meteohub,2013-10-05 19:50:00,
2013-10-05 14:55:00,59.0,51.8,29.74,WNW,286,0.0,0.0,77,0.00,,,0.24,meteohub,2013-10-05 19:55:00,
2013-10-05 15:00:00,59.0,51.8,29.74,WNW,286,0.0,0.0,77,0.00,,,0.24,meteohub,2013-10-05 20:00:00,
2013-10-05 15:05:00,59.0,52.2,29.73,WNW,286,0.0,0.0,78,0.00,,,0.24,meteohub,2013-10-05 20:05:00,
2013-10-05 15:10:00,59.0,52.2,29.73,WNW,286,0.0,0.0,78,0.01,,,0.25,meteohub,2013-10-05 20:10:00,
2013-10-05 15:15:00,58.8,52.3,29.74,WNW,286,0.0,0.0,79,0.01,,,0.25,meteohub,2013-10-05 20:15:00,
2013-10-05 15:20:00,58.6,52.2,29.74,WNW,286,0.0,0.0,79,0.01,,,0.25,meteohub,2013-10-05 20:20:00,
2013-10-05 15:25:00,58.5,52.0,29.74,WNW,286,0.0,1.0,79,0.01,,,0.25,meteohub,2013-10-05 20:25:00,
2013-10-05 15:30:00,58.3,51.8,29.74,WNW,286,0.0,1.0,79,0.01,,,0.25,meteohub,2013-10-05 20:30:00,
2013-10-05 15:36:00,58.1,51.6,29.74,WNW,286,0.0,1.0,79,0.01,,,0.25,meteohub,2013-10-05 20:36:00,
2013-10-05 15:41:00,57.9,51.4,29.74,WNW,286,0.0,0.0,79,0.01,,,0.25,meteohub,2013-10-05 20:41:00,
2013-10-05 15:46:00,57.7,51.3,29.75,WNW,286,0.0,0.0,79,0.01,,,0.25,meteohub,2013-10-05 20:46:00,
2013-10-05 15:51:00,57.7,51.3,29.74,WNW,286,0.0,0.0,79,0.01,,,0.25,meteohub,2013-10-05 20:51:00,
2013-10-05 15:56:00,57.6,51.4,29.74,WNW,286,0.0,1.0,80,0.01,,,0.25,meteohub,2013-10-05 20:56:00,
2013-10-05 16:01:00,57.4,51.3,29.74,WNW,286,0.0,1.0,80,0.01,,,0.25,meteohub,2013-10-05 21:01:00,
2013-10-05 16:06:00,57.4,51.3,29.74,WNW,286,0.0,1.0,80,0.01,,,0.25,meteohub,2013-10-05 21:06:00,
2013-10-05 16:11:00,57.2,51.1,29.74,WNW,286,0.0,0.0,80,0.00,,,0.25,meteohub,2013-10-05 21:11:00,
2013-10-05 16:16:00,57.0,50.9,29.74,WNW,286,0.0,0.0,80,0.00,,,0.25,meteohub,2013-10-05 21:16:00,
2013-10-05 16:21:00,56.8,51.1,29.74,WNW,286,0.0,0.0,81,0.00,,,0.25,meteohub,2013-10-05 21:21:00,
2013-10-05 16:26:00,56.8,51.1,29.74,WNW,286,0.0,0.0,81,0.00,,,0.25,meteohub,2013-10-05 21:26:00,
2013-10-05 16:32:00,56.7,50.9,29.73,WNW,286,0.0,0.0,81,0.00,,,0.25,meteohub,2013-10-05 21:32:00,
2013-10-05 16:37:00,56.7,50.9,29.73,WNW,286,0.0,0.0,81,0.00,,,0.25,meteohub,2013-10-05 21:37:00,
2013-10-05 16:42:00,56.5,50.7,29.74,WNW,286,0.0,0.0,81,0.00,,,0.25,meteohub,2013-10-05 21:42:00,
2013-10-05 16:47:00,56.5,51.1,29.75,WNW,286,0.0,0.0,82,0.00,,,0.25,meteohub,2013-10-05 21:47:00,
2013-10-05 16:52:00,56.3,50.9,29.74,WNW,295,0.0,0.0,82,0.00,,,0.25,meteohub,2013-10-05 21:52:00,
2013-10-05 16:57:00,56.1,50.7,29.74,WNW,296,0.0,1.0,82,0.00,,,0.25,meteohub,2013-10-05 21:57:00,
2013-10-05 17:02:00,55.9,50.5,29.75,NNE,14,0.0,1.0,82,0.00,,,0.25,meteohub,2013-10-05 22:02:00,
2013-10-05 17:07:00,55.8,50.4,29.75,NNE,14,0.0,3.0,82,0.00,,,0.25,meteohub,2013-10-05 22:07:00,
2013-10-05 17:12:00,55.6,50.2,29.76,NNE,14,0.0,3.0,82,0.00,,,0.25,meteohub,2013-10-05 22:12:00,
2013-10-05 17:17:00,55.4,50.0,29.77,North,0,0.0,3.0,82,0.00,,,0.25,meteohub,2013-10-05 22:17:00,
2013-10-05 17:22:00,55.2,49.5,29.78,WNW,300,0.0,2.0,81,0.00,,,0.25,meteohub,2013-10-05 22:22:00,
2013-10-05 17:27:00,54.9,49.1,29.78,WNW,300,0.0,2.0,81,0.00,,,0.25,meteohub,2013-10-05 22:27:00,
2013-10-05 17:32:00,54.7,48.9,29.78,NW,310,0.0,2.0,81,0.00,,,0.25,meteohub,2013-10-05 22:32:00,
2013-10-05 17:37:00,54.3,48.6,29.78,SSW,209,0.0,4.0,81,0.00,,,0.25,meteohub,2013-10-05 22:37:00,
2013-10-05 17:42:00,54.0,48.0,29.78,WNW,293,0.0,4.0,80,0.00,,,0.25,meteohub,2013-10-05 22:42:00,
2013-10-05 17:47:00,53.4,47.5,29.78,West,272,0.0,4.0,80,0.00,,,0.25,meteohub,2013-10-05 22:47:00,
2013-10-05 17:52:00,53.2,47.3,29.77,West,272,0.0,4.0,80,0.00,,,0.25,meteohub,2013-10-05 22:52:00,
2013-10-05 17:57:00,52.9,46.9,29.77,NNW,330,2.0,3.0,80,0.00,,,0.25,meteohub,2013-10-05 22:57:00,
2013-10-05 18:03:00,52.5,46.6,29.77,NNW,330,0.0,3.0,80,0.00,,,0.25,meteohub,2013-10-05 23:03:00,
2013-10-05 18:08:00,52.3,46.4,29.76,NNW,330,0.0,2.0,80,0.00,,,0.25,meteohub,2013-10-05 23:08:00,
2013-10-05 18:13:00,52.2,46.2,29.78,NNW,330,0.0,2.0,80,0.00,,,0.25,meteohub,2013-10-05 23:13:00,
2013-10-05 18:18:00,52.0,46.4,29.78,NW,318,0.0,0.0,81,0.00,,,0.25,meteohub,2013-10-05 23:18:00,
2013-10-05 18:23:00,52.0,46.4,29.78,WNW,292,1.0,0.0,81,0.00,,,0.25,meteohub,2013-10-05 23:23:00,
2013-10-05 18:28:00,51.8,46.2,29.77,WNW,300,0.0,2.0,81,0.00,,,0.25,meteohub,2013-10-05 23:28:00,
2013-10-05 18:33:00,51.6,46.0,29.76,WNW,300,0.0,3.0,81,0.00,,,0.25,meteohub,2013-10-05 23:33:00,
2013-10-05 18:38:00,51.4,45.9,29.75,WNW,300,0.0,3.0,81,0.00,,,0.25,meteohub,2013-10-05 23:38:00,
2013-10-05 18:43:00,51.4,45.9,29.75,WNW,300,0.0,1.0,81,0.00,,,0.25,meteohub,2013-10-05 23:43:00,
2013-10-05 18:48:00,51.4,45.9,29.75,WNW,300,0.0,0.0,81,0.00,,,0.25,meteohub,2013-10-05 23:48:00,
2013-10-05 18:53:00,51.3,46.0,29.73,WNW,300,0.0,0.0,82,0.00,,,0.25,meteohub,2013-10-05 23:53:00,
2013-10-05 18:58:00,51.3,46.0,29.73,WNW,301,0.0,1.0,82,0.00,,,0.25,meteohub,2013-10-05 23:58:00,
2013-10-05 19:04:00,51.1,46.0,29.75,WNW,301,0.0,1.0,83,0.00,,,0.25,meteohub,2013-10-06 00:04:00,
2013-10-05 19:09:00,51.1,46.0,29.76,WNW,300,0.0,1.0,83,0.00,,,0.00,meteohub,2013-10-06 00:09:00,
2013-10-05 19:14:00,50.9,45.9,29.76,WNW,300,0.0,1.0,83,0.00,,,0.00,meteohub,2013-10-06 00:14:00,
2013-10-05 19:19:00,50.7,45.7,29.75,WNW,300,0.0,1.0,83,0.00,,,0.00,meteohub,2013-10-06 00:19:00,
2013-10-05 19:24:00,50.7,46.0,29.77,WNW,300,0.0,1.0,84,0.00,,,0.00,meteohub,2013-10-06 00:24:00,
2013-10-05 19:29:00,50.5,45.9,29.76,WNW,300,0.0,0.0,84,0.00,,,0.00,meteohub,2013-10-06 00:29:00,
2013-10-05 19:34:00,50.5,45.9,29.76,WNW,300,0.0,0.0,84,0.00,,,0.00,meteohub,2013-10-06 00:34:00,
2013-10-05 19:39:00,50.5,45.9,29.76,WNW,300,0.0,1.0,84,0.00,,,0.00,meteohub,2013-10-06 00:39:00,
2013-10-05 19:44:00,50.4,45.7,29.76,WNW,300,0.0,1.0,84,0.00,,,0.00,meteohub,2013-10-06 00:44:00,
2013-10-05 19:49:00,50.4,45.7,29.76,WNW,300,0.0,0.0,84,0.00,,,0.00,meteohub,2013-10-06 00:49:00,
2013-10-05 19:54:00,50.2,45.5,29.76,WNW,300,0.0,0.0,84,0.00,,,0.00,meteohub,2013-10-06 00:54:00,
2013-10-05 19:59:00,50.2,45.5,29.75,WNW,300,0.0,0.0,84,0.00,,,0.00,meteohub,2013-10-06 00:59:00,
2013-10-05 20:05:00,50.0,45.3,29.75,WNW,300,0.0,0.0,84,0.00,,,0.00,meteohub,2013-10-06 01:05:00,
2013-10-05 20:10:00,49.8,45.5,29.75,WNW,300,0.0,0.0,85,0.00,,,0.00,meteohub,2013-10-06 01:10:00,
2013-10-05 20:15:00,49.6,45.3,29.75,WNW,300,0.0,0.0,85,0.00,,,0.00,meteohub,2013-10-06 01:15:00,
2013-10-05 20:20:00,49.6,45.3,29.76,WNW,300,0.0,0.0,85,0.00,,,0.00,meteohub,2013-10-06 01:20:00,
2013-10-05 20:25:00,49.5,44.8,29.76,WNW,300,0.0,0.0,84,0.00,,,0.00,meteohub,2013-10-06 01:25:00,
2013-10-05 20:30:00,49.3,45.0,29.76,WNW,300,0.0,0.0,85,0.00,,,0.00,meteohub,2013-10-06 01:30:00,
2013-10-05 20:35:00,49.3,45.0,29.76,WNW,300,0.0,0.0,85,0.00,,,0.00,meteohub,2013-10-06 01:35:00,
2013-10-05 20:40:00,48.9,44.6,29.76,WNW,300,0.0,0.0,85,0.00,,,0.00,meteohub,2013-10-06 01:40:00,
2013-10-05 20:45:00,48.7,44.4,29.76,WNW,300,0.0,0.0,85,0.00,,,0.00,meteohub,2013-10-06 01:45:00,
2013-10-05 20:50:00,48.7,44.4,29.76,WNW,300,0.0,0.0,85,0.00,,,0.00,meteohub,2013-10-06 01:50:00,
2013-10-05 20:55:00,48.6,44.2,29.76,WNW,300,0.0,0.0,85,0.00,,,0.00,meteohub,2013-10-06 01:55:00,
2013-10-05 21:00:00,48.4,44.1,29.76,WNW,300,0.0,0.0,85,0.00,,,0.00,meteohub,2013-10-06 02:00:00,
2013-10-05 21:06:00,48.2,43.9,29.76,WNW,300,0.0,0.0,85,0.00,,,0.00,meteohub,2013-10-06 02:06:00,
2013-10-05 21:11:00,48.0,43.7,29.76,WNW,300,0.0,0.0,85,0.00,,,0.00,meteohub,2013-10-06 02:11:00,
2013-10-05 21:16:00,47.8,43.5,29.76,WNW,300,0.0,0.0,85,0.00,,,0.00,meteohub,2013-10-06 02:16:00,
2013-10-05 21:21:00,47.7,43.3,29.76,WNW,300,0.0,0.0,85,0.00,,,0.00,meteohub,2013-10-06 02:21:00,
2013-10-05 21:26:00,47.5,43.2,29.76,WNW,300,0.0,0.0,85,0.00,,,0.00,meteohub,2013-10-06 02:26:00,
2013-10-05 21:31:00,47.5,43.2,29.77,WNW,300,0.0,0.0,85,0.00,,,0.00,meteohub,2013-10-06 02:31:00,
2013-10-05 21:36:00,47.1,42.8,29.77,WNW,300,0.0,0.0,85,0.00,,,0.00,meteohub,2013-10-06 02:36:00,
2013-10-05 21:41:00,46.9,43.0,29.78,WNW,300,0.0,0.0,86,0.00,,,0.00,meteohub,2013-10-06 02:41:00,
2013-10-05 21:46:00,46.9,42.6,29.78,WNW,300,0.0,0.0,85,0.00,,,0.00,meteohub,2013-10-06 02:46:00,
2013-10-05 21:51:00,46.8,42.8,29.78,WNW,300,0.0,0.0,86,0.00,,,0.00,meteohub,2013-10-06 02:51:00,
2013-10-05 21:57:00,46.6,42.6,29.78,WNW,300,0.0,0.0,86,0.00,,,0.00,meteohub,2013-10-06 02:57:00,
2013-10-05 22:02:00,46.4,42.4,29.78,WNW,300,0.0,0.0,86,0.00,,,0.00,meteohub,2013-10-06 03:02:00,
2013-10-05 22:07:00,46.2,42.3,29.78,WNW,300,0.0,0.0,86,0.00,,,0.00,meteohub,2013-10-06 03:07:00,
2013-10-05 22:12:00,46.0,42.1,29.78,WNW,300,0.0,0.0,86,0.00,,,0.00,meteohub,2013-10-06 03:12:00,
2013-10-05 22:17:00,46.0,42.1,29.78,WNW,300,0.0,0.0,86,0.00,,,0.00,meteohub,2013-10-06 03:17:00,
2013-10-05 22:22:00,45.9,41.9,29.78,WNW,300,0.0,0.0,86,0.00,,,0.00,meteohub,2013-10-06 03:22:00,
2013-10-05 22:27:00,45.9,41.9,29.78,WNW,300,0.0,0.0,86,0.00,,,0.00,meteohub,2013-10-06 03:27:00,
2013-10-05 22:32:00,45.7,41.7,29.78,WNW,300,0.0,0.0,86,0.00,,,0.00,meteohub,2013-10-06 03:32:00,
2013-10-05 22:37:00,45.7,41.7,29.78,WNW,300,0.0,0.0,86,0.00,,,0.00,meteohub,2013-10-06 03:37:00,
2013-10-05 22:42:00,45.5,41.5,29.78,WNW,300,0.0,0.0,86,0.00,,,0.00,meteohub,2013-10-06 03:42:00,
2013-10-05 22:47:00,45.3,41.4,29.78,WNW,300,0.0,0.0,86,0.00,,,0.00,meteohub,2013-10-06 03:47:00,
2013-10-05 22:53:00,45.1,41.2,29.78,WNW,300,0.0,0.0,86,0.00,,,0.00,meteohub,2013-10-06 03:53:00,
2013-10-05 22:58:00,45.0,41.4,29.78,WNW,300,0.0,0.0,87,0.00,,,0.00,meteohub,2013-10-06 03:58:00,
2013-10-05 23:01:00,45.0,41.4,29.78,WNW,300,0.0,0.0,87,0.00,,,0.00,meteohub,2013-10-06 04:01:00,
2013-10-05 23:02:00,45.0,41.4,29.78,WNW,300,0.0,0.0,87,0.00,,,0.00,meteohub,2013-10-06 04:02:00,
2013-10-05 23:03:00,45.0,41.4,29.77,WNW,300,0.0,0.0,87,0.00,,,0.00,meteohub,2013-10-06 04:03:00,
2013-10-05 23:04:00,44.8,41.2,29.77,WNW,300,0.0,0.0,87,0.00,,,0.00,meteohub,2013-10-06 04:04:00,
2013-10-05 23:09:00,44.8,41.2,29.77,WNW,300,0.0,0.0,87,0.00,,,0.00,meteohub,2013-10-06 04:09:00,
2013-10-05 23:14:00,44.4,40.8,29.77,WNW,300,0.0,0.0,87,0.00,,,0.00,meteohub,2013-10-06 04:14:00,
2013-10-05 23:19:00,44.2,40.6,29.77,WNW,300,0.0,0.0,87,0.00,,,0.00,meteohub,2013-10-06 04:19:00,
2013-10-05 23:24:00,44.1,40.5,29.77,WNW,300,0.0,0.0,87,0.00,,,0.00,meteohub,2013-10-06 04:24:00,
2013-10-05 23:29:00,44.1,40.5,29.77,WNW,300,0.0,0.0,87,0.00,,,0.00,meteohub,2013-10-06 04:29:00,
2013-10-05 23:35:00,43.9,40.3,29.77,WNW,300,0.0,0.0,87,0.00,,,0.00,meteohub,2013-10-06 04:35:00,
2013-10-05 23:40:00,43.9,40.6,29.76,WNW,300,0.0,0.0,88,0.00,,,0.00,meteohub,2013-10-06 04:40:00,
2013-10-05 23:45:00,43.7,40.1,29.76,WNW,300,0.0,0.0,87,0.00,,,0.00,meteohub,2013-10-06 04:45:00,
2013-10-05 23:50:00,43.7,40.5,29.75,WNW,300,0.0,0.0,88,0.00,,,0.00,meteohub,2013-10-06 04:50:00,
2013-10-05 23:55:00,43.5,40.3,29.75,WNW,300,0.0,0.0,88,0.00,,,0.00,meteohub,2013-10-06 04:55:00,